Flag for U.S.A. Weather past 2 weeks in San Bernardino, California, U.S.A.

Now
61 °F

Clear.


Feels Like: 61 °F
Forecast: 55 / 87 °F
Wind: No wind

Location: Riverside Municipal Airport

Current Time: Mar 30, 2015 at 2:37:58 AM

Latest Report: Mar 30, 2015 at 1:53 AM


Visibility: 10 mi

Pressure: 29.98 "Hg

Humidity: 65%

Dew point: 49 °F

Location of San BernardinoLocation

Historic Weather in San Bernardino — Graph

°F

San Bernardino temperature yesterday

Maximum temperature yesterday: 87 °F (at 1:53 PM)
Minimum temperature yesterday: 56 °F (at 5:53 AM)
Average temperature yesterday: 71 °F

Past Weeks' High & Low Weather Summary

 TemperatureHumidityPressure
High93 °F (Mar 26, 4:53 PM)96% (Mar 20, 7:53 AM)30.18 "Hg (Mar 20, 7:53 AM)
Low51 °F (Mar 24, 6:53 AM)7% (Mar 16, 1:53 PM)29.83 "Hg (Mar 16, 3:53 PM)
Average69 °F47%30.00 "Hg
* Reported Mar 15 12:53 AM — Mar 30 12:53 AM, San Bernardino, Weather by CustomWeather, © 2015

Note: Actual official high and low records may vary slightly from our data, if they occured in-between our weather recording intervals... More about our weather records

Advertising

San Bernardino weather history for previous 24 hours

 ConditionsComfort  
Time TempWeatherWind HumidityBarometerVisibility
12:53 AM
Mon, Mar 30
63 °FClear.No wind68%29.99 "Hg10 mi
11:53 PM
Sun, Mar 29
64 °FClear.No wind65%29.99 "Hg10 mi
10:53 PM67 °FClear.3 mph55%29.99 "Hg10 mi
9:53 PM68 °FClear.No wind49%29.98 "Hg10 mi
8:53 PM69 °FClear.3 mph42%29.97 "Hg10 mi
7:53 PM73 °FSunny.5 mph34%29.95 "Hg10 mi
6:53 PM76 °FSunny.9 mph36%29.93 "Hg10 mi
5:53 PM82 °FSunny.8 mph25%29.91 "Hg10 mi
4:53 PM85 °FSunny.13 mph15%29.90 "Hg10 mi
3:53 PM87 °FPassing clouds.9 mph14%29.91 "Hg10 mi
2:53 PM87 °FPassing clouds.14 mph21%29.92 "Hg10 mi
1:53 PM87 °FScattered clouds.7 mph15%29.95 "Hg10 mi
12:53 PM85 °FPartly sunny.5 mph14%29.96 "Hg10 mi
11:53 AM82 °FPartly sunny.No wind17%29.99 "Hg10 mi
10:53 AM77 °FPartly sunny.No wind26%30.01 "Hg10 mi
9:53 AM71 °FPartly sunny.3 mph32%30.03 "Hg10 mi
8:53 AM64 °FPartly sunny.No wind45%30.03 "Hg10 mi
7:53 AM58 °FPartly sunny.No wind56%30.04 "Hg10 mi
6:53 AM56 °FClear.No wind60%30.03 "Hg10 mi
5:53 AM56 °FClear.No wind58%30.00 "Hg10 mi
4:53 AM58 °FClear.3 mph56%29.98 "Hg10 mi
3:53 AM59 °FClear.No wind56%29.97 "Hg10 mi
2:53 AM61 °FClear.3 mph50%29.98 "Hg10 mi
Weather by CustomWeather, © 2015

See weather overviewHow to use our weather pages